| time (UTC) | temp C | wind direction | speed KPH | gust KPH | rain 1hr cm | rain 24hr cm | rain mn cm | humidity % | barometer mb |
| 20260502183407 | 7 | 265 | 1.6 | 6.4 | 0.00 | 0.00 | 0.00 | 52 | 1017.4 |
| 20260502182903 | 8 | 324 | 3.2 | 9.7 | 0.00 | 0.00 | 0.00 | 49 | 1017.3 |
| 20260502182359 | 8 | 68 | 4.8 | 11.3 | 0.00 | 0.00 | 0.00 | 53 | 1017.4 |
| 20260502181855 | 7 | 157 | 4.8 | 14.5 | 0.00 | 0.00 | 0.00 | 51 | 1017.5 |
| 20260502181354 | 7 | 152 | 4.8 | 22.5 | 0.00 | 0.00 | 0.00 | 52 | 1017.5 |
| 20260502180851 | 7 | 271 | 3.2 | 8.0 | 0.00 | 0.00 | 0.00 | 50 | 1017.6 |
| 20260502180348 | 7 | 349 | 3.2 | 9.7 | 0.00 | 0.00 | 0.00 | 49 | 1017.7 |
| 20260502170307 | 6 | 43 | 4.8 | 11.3 | 0.00 | 0.00 | 0.00 | 49 | 1017.8 |
| 20260502164255 | 6 | 231 | 6.4 | 14.5 | 0.00 | 0.00 | 0.00 | 50 | 1017.8 |
| 20260502163750 | 6 | 83 | 3.2 | 9.7 | 0.00 | 0.00 | 0.00 | 51 | 1018.0 |
| 20260502163247 | 6 | 2 | 3.2 | 9.7 | 0.00 | 0.00 | 0.00 | 53 | 1018.1 |
| 20260502162744 | 6 | 21 | 6.4 | 14.5 | 0.00 | 0.00 | 0.00 | 50 | 1017.9 |
| 20260502162241 | 7 | 342 | 3.2 | 8.0 | 0.00 | 0.00 | 0.00 | 46 | 1018.1 |
| 20260502161738 | 7 | 35 | 4.8 | 11.3 | 0.00 | 0.00 | 0.00 | 51 | 1018.1 |
| 20260502161234 | 6 | 330 | 8.0 | 9.7 | 0.00 | 0.00 | 0.00 | 53 | 1018.2 |
| 20260502160732 | 6 | 347 | 6.4 | 9.7 | 0.00 | 0.00 | 0.00 | 53 | 1018.2 |
| 20260502160231 | 6 | 341 | 4.8 | 8.0 | 0.00 | 0.00 | 0.00 | 52 | 1018.1 |
| 20260502152155 | 5 | 348 | 6.4 | 16.1 | 0.00 | 0.00 | 0.00 | 53 | 1018.1 |
| 20260502151652 | 6 | 346 | 8.0 | 16.1 | 0.00 | 0.00 | 0.00 | 52 | 1018.0 |
| 20260502151150 | 5 | 14 | 4.8 | 12.9 | 0.00 | 0.00 | 0.00 | 52 | 1018.1 |
| 20260502150647 | 6 | 355 | 12.9 | 22.5 | 0.00 | 0.00 | 0.00 | 52 | 1018.3 |
| 20260502150143 | 5 | 325 | 4.8 | 8.0 | 0.00 | 0.00 | 0.00 | 54 | 1018.2 |
| 20260502140107 | 4 | 318 | 4.8 | 9.7 | 0.00 | 0.00 | 0.00 | 63 | 1018.1 |
| 20260502130532 | 3 | 0 | 0.0 | 8.0 | 0.00 | 0.00 | 0.00 | 71 | 1018.3 |
| 20260502123515 | 2 | 13 | 6.4 | 11.3 | 0.00 | 0.00 | 0.00 | 74 | 1018.2 |
| 20260502123011 | 2 | 30 | 3.2 | 9.7 | 0.00 | 0.00 | 0.00 | 75 | 1018.2 |
| 20260502122508 | 2 | 22 | 8.0 | 14.5 | 0.00 | 0.00 | 0.00 | 75 | 1018.2 |
| 20260502122005 | 2 | 8 | 4.8 | 11.3 | 0.00 | 0.00 | 0.00 | 75 | 1018.3 |
| 20260502121503 | 2 | 2 | 9.7 | 20.9 | 0.00 | 0.00 | 0.00 | 76 | 1018.3 |
| 20260502121000 | 2 | 337 | 8.0 | 25.7 | 0.00 | 0.00 | 0.00 | 77 | 1018.2 |
| 20260502120456 | 1 | 22 | 6.4 | 14.5 | 0.00 | 0.00 | 0.00 | 78 | 1018.1 |
| 20260502115451 | 2 | 33 | 6.4 | 8.0 | 0.00 | 0.00 | 0.00 | 79 | 1018.1 |
| 20260502114947 | 1 | 337 | 4.8 | 8.0 | 0.00 | 0.00 | 0.00 | 79 | 1018.1 |
| 20260502114444 | 1 | 73 | 4.8 | 9.7 | 0.00 | 0.00 | 0.00 | 79 | 1018.2 |
| 20260502113941 | 1 | 32 | 8.0 | 12.9 | 0.00 | 0.00 | 0.00 | 80 | 1018.2 |
| 20260502113438 | 1 | 354 | 4.8 | 8.0 | 0.00 | 0.00 | 0.00 | 80 | 1017.9 |
| 20260502112937 | 1 | 338 | 4.8 | 6.4 | 0.00 | 0.00 | 0.00 | 82 | 1017.9 |
| 20260502112434 | 1 | 4 | 1.6 | 8.0 | 0.00 | 0.00 | 0.00 | 82 | 1018.0 |
| 20260502111931 | 1 | 0 | 3.2 | 8.0 | 0.00 | 0.00 | 0.00 | 82 | 1017.8 |
| 20260502111428 | 1 | 37 | 3.2 | 4.8 | 0.00 | 0.00 | 0.00 | 83 | 1017.7 |
| 20260502110926 | 1 | 62 | 6.4 | 6.4 | 0.00 | 0.00 | 0.00 | 83 | 1017.9 |
| 20260502110423 | 0 | 332 | 3.2 | 6.4 | 0.00 | 0.00 | 0.00 | 84 | 1017.8 |
| 20260502105920 | 0 | 320 | 0.0 | 4.8 | 0.00 | 0.00 | 0.00 | 85 | 1017.8 |
| 20260502105417 | 0 | 307 | 8.0 | 9.7 | 0.00 | 0.00 | 0.00 | 88 | 1017.7 |
| 20260502104916 | 0 | 97 | 3.2 | 4.8 | 0.00 | 0.00 | 0.00 | 90 | 1017.7 |
| 20260502104412 | 0 | 123 | 4.8 | 4.8 | 0.00 | 0.00 | 0.00 | 91 | 1017.6 |
| 20260502103910 | 0 | 55 | 0.0 | 3.2 | 0.00 | 0.00 | 0.00 | 92 | 1017.7 |
| 20260502103408 | 0 | 53 | 3.2 | 4.8 | 0.00 | 0.00 | 0.00 | 93 | 1017.7 |
| 20260502102904 | 0 | 93 | 1.6 | 4.8 | 0.00 | 0.00 | 0.00 | 93 | 1017.6 |
| 20260502102401 | 0 | 62 | 0.0 | 4.8 | 0.00 | 0.00 | 0.00 | 93 | 1017.6 |
| 20260502101858 | 0 | 82 | 1.6 | 3.2 | 0.00 | 0.00 | 0.00 | 93 | 1017.6 |
| 20260502101356 | 0 | 80 | 1.6 | 3.2 | 0.00 | 0.00 | 0.00 | 93 | 1017.7 |
| 20260502100854 | 0 | 71 | 3.2 | 4.8 | 0.00 | 0.00 | 0.00 | 93 | 1017.4 |
| 20260502100353 | 0 | 95 | 0.0 | 3.2 | 0.00 | 0.00 | 0.00 | 93 | 1017.5 |
| 20260502091327 | 0 | 82 | 1.6 | 4.8 | 0.00 | 0.00 | 0.00 | 92 | 1017.0 |
| 20260502090825 | 0 | 98 | 1.6 | 3.2 | 0.00 | 0.00 | 0.00 | 92 | 1017.1 |
| 20260502090321 | 0 | 104 | 3.2 | 3.2 | 0.00 | 0.00 | 0.00 | 91 | 1016.9 |
| 20260502071216 | 2 | 78 | 1.6 | 3.2 | 0.00 | 0.00 | 0.00 | 84 | 1016.7 |
| 20260502070715 | 3 | 52 | 1.6 | 4.8 | 0.00 | 0.00 | 0.00 | 84 | 1016.6 |
| 20260502070212 | 3 | 50 | 3.2 | 4.8 | 0.00 | 0.00 | 0.00 | 83 | 1016.6 |
| 20260502065710 | 3 | 66 | 3.2 | 3.2 | 0.00 | 0.00 | 0.00 | 83 | 1016.8 |
| 20260502065208 | 3 | 85 | 3.2 | 4.8 | 0.00 | 0.00 | 0.00 | 82 | 1016.6 |
| 20260502064706 | 3 | 61 | 3.2 | 4.8 | 0.00 | 0.00 | 0.00 | 82 | 1016.8 |
| 20260502064203 | 3 | 57 | 4.8 | 4.8 | 0.00 | 0.00 | 0.00 | 82 | 1016.8 |
| 20260502063701 | 3 | 54 | 3.2 | 4.8 | 0.00 | 0.00 | 0.00 | 81 | 1016.8 |
| 20260502063158 | 3 | 97 | 3.2 | 4.8 | 0.00 | 0.00 | 0.00 | 80 | 1017.0 |
| 20260502062655 | 3 | 84 | 4.8 | 4.8 | 0.00 | 0.00 | 0.00 | 80 | 1016.9 |
| 20260502062153 | 3 | 92 | 4.8 | 6.4 | 0.00 | 0.00 | 0.00 | 79 | 1017.0 |
| 20260502061651 | 3 | 50 | 4.8 | 4.8 | 0.00 | 0.00 | 0.00 | 77 | 1016.8 |
| 20260502061148 | 3 | 48 | 6.4 | 8.0 | 0.00 | 0.00 | 0.00 | 75 | 1017.1 |
| 20260502060648 | 3 | 49 | 3.2 | 4.8 | 0.00 | 0.00 | 0.00 | 72 | 1016.9 |
| 20260502060145 | 3 | 61 | 3.2 | 4.8 | 0.00 | 0.00 | 0.00 | 72 | 1017.1 |
| 20260502055643 | 3 | 53 | 3.2 | 4.8 | 0.00 | 0.00 | 0.00 | 71 | 1017.1 |
| 20260502055141 | 3 | 63 | 3.2 | 3.2 | 0.00 | 0.00 | 0.00 | 71 | 1017.1 |
| 20260502054640 | 3 | 46 | 3.2 | 4.8 | 0.00 | 0.00 | 0.00 | 69 | 1017.1 |
| 20260502054137 | 3 | 80 | 3.2 | 6.4 | 0.00 | 0.00 | 0.00 | 70 | 1017.0 |
| 20260502053634 | 3 | 35 | 3.2 | 4.8 | 0.00 | 0.00 | 0.00 | 69 | 1017.1 |
| 20260502053131 | 3 | 51 | 3.2 | 4.8 | 0.00 | 0.00 | 0.00 | 68 | 1017.1 |
| 20260502052629 | 3 | 48 | 3.2 | 6.4 | 0.00 | 0.00 | 0.00 | 66 | 1017.1 |
| 20260502052127 | 3 | 39 | 4.8 | 8.0 | 0.00 | 0.00 | 0.00 | 66 | 1017.0 |
| 20260502051625 | 3 | 17 | 4.8 | 9.7 | 0.00 | 0.00 | 0.00 | 65 | 1017.0 |
| 20260502051123 | 4 | 46 | 3.2 | 6.4 | 0.00 | 0.00 | 0.00 | 64 | 1017.0 |
| 20260502050619 | 3 | 332 | 4.8 | 11.3 | 0.00 | 0.00 | 0.00 | 62 | 1016.8 |
| 20260502050116 | 3 | 26 | 1.6 | 3.2 | 0.00 | 0.00 | 0.00 | 63 | 1016.7 |
| 20260502045612 | 4 | 314 | 4.8 | 8.0 | 0.00 | 0.00 | 0.00 | 61 | 1016.7 |
| 20260502045109 | 4 | 54 | 4.8 | 11.3 | 0.00 | 0.00 | 0.00 | 62 | 1016.8 |
| 20260502044606 | 4 | 32 | 3.2 | 11.3 | 0.00 | 0.00 | 0.00 | 62 | 1016.6 |
| 20260502044103 | 4 | 11 | 4.8 | 6.4 | 0.00 | 0.00 | 0.00 | 62 | 1016.8 |
| 20260502043600 | 4 | 70 | 3.2 | 6.4 | 0.00 | 0.00 | 0.00 | 62 | 1016.7 |
| 20260502043057 | 4 | 2 | 1.6 | 8.0 | 0.00 | 0.00 | 0.00 | 61 | 1016.6 |
| 20260502042551 | 4 | 33 | 4.8 | 11.3 | 0.00 | 0.00 | 0.00 | 62 | 1016.6 |
| 20260502042049 | 4 | 40 | 6.4 | 8.0 | 0.00 | 0.00 | 0.00 | 62 | 1016.5 |
| 20260502041546 | 4 | 12 | 4.8 | 12.9 | 0.00 | 0.00 | 0.00 | 62 | 1016.7 |
| 20260502041043 | 4 | 56 | 6.4 | 11.3 | 0.00 | 0.00 | 0.00 | 62 | 1016.6 |
| 20260502040540 | 4 | 63 | 3.2 | 8.0 | 0.00 | 0.00 | 0.00 | 62 | 1016.6 |
| 20260502040037 | 4 | 30 | 8.0 | 8.0 | 0.00 | 0.00 | 0.00 | 64 | 1016.5 |
| 20260502035532 | 4 | 38 | 4.8 | 17.7 | 0.00 | 0.00 | 0.00 | 63 | 1016.6 |
| 20260502035031 | 4 | 334 | 3.2 | 17.7 | 0.00 | 0.00 | 0.00 | 62 | 1016.6 |
| 20260502034528 | 4 | 47 | 4.8 | 12.9 | 0.00 | 0.00 | 0.00 | 63 | 1016.5 |
| 20260502034027 | 4 | 328 | 4.8 | 17.7 | 0.00 | 0.00 | 0.00 | 65 | 1016.5 |
| 20260502033524 | 4 | 62 | 3.2 | 8.0 | 0.00 | 0.00 | 0.00 | 65 | 1016.4 |
| 20260502033022 | 5 | 27 | 3.2 | 4.8 | 0.00 | 0.00 | 0.00 | 65 | 1016.3 |
| 20260502032517 | 5 | 0 | 4.8 | 8.0 | 0.00 | 0.00 | 0.00 | 65 | 1016.5 |
| 20260502032014 | 5 | 37 | 3.2 | 12.9 | 0.00 | 0.00 | 0.00 | 64 | 1016.5 |
| 20260502031512 | 5 | 48 | 6.4 | 9.7 | 0.00 | 0.00 | 0.00 | 63 | 1016.3 |
| 20260502031010 | 5 | 47 | 4.8 | 8.0 | 0.00 | 0.00 | 0.00 | 64 | 1016.4 |
| 20260502030508 | 5 | 352 | 3.2 | 6.4 | 0.00 | 0.00 | 0.00 | 64 | 1016.4 |
| 20260502030006 | 5 | 4 | 3.2 | 3.2 | 0.00 | 0.00 | 0.00 | 65 | 1016.5 |
| 20260502025503 | 5 | 30 | 3.2 | 8.0 | 0.00 | 0.00 | 0.00 | 65 | 1016.5 |
| 20260502025001 | 5 | 46 | 6.4 | 12.9 | 0.00 | 0.00 | 0.00 | 64 | 1016.5 |
| 20260502024458 | 5 | 325 | 4.8 | 6.4 | 0.00 | 0.00 | 0.00 | 64 | 1016.4 |
| 20260502023956 | 5 | 34 | 4.8 | 12.9 | 0.00 | 0.00 | 0.00 | 66 | 1016.3 |
| 20260502023453 | 5 | 46 | 6.4 | 11.3 | 0.00 | 0.00 | 0.00 | 66 | 1016.4 |
| 20260502022951 | 5 | 322 | 8.0 | 11.3 | 0.00 | 0.00 | 0.00 | 64 | 1016.5 |
| 20260502022447 | 5 | 48 | 6.4 | 9.7 | 0.00 | 0.00 | 0.00 | 64 | 1016.3 |
| 20260502021944 | 5 | 333 | 6.4 | 14.5 | 0.00 | 0.00 | 0.00 | 63 | 1016.4 |
| 20260502021442 | 5 | 330 | 6.4 | 16.1 | 0.00 | 0.00 | 0.00 | 63 | 1016.2 |
| 20260502020938 | 5 | 352 | 6.4 | 16.1 | 0.00 | 0.00 | 0.00 | 63 | 1016.2 |
| 20260502020437 | 5 | 30 | 6.4 | 19.3 | 0.00 | 0.00 | 0.00 | 64 | 1016.1 |
| 20260502015933 | 5 | 9 | 6.4 | 9.7 | 0.00 | 0.00 | 0.00 | 63 | 1016.2 |
| 20260502015431 | 5 | 356 | 6.4 | 14.5 | 0.00 | 0.00 | 0.00 | 61 | 1016.1 |
| 20260502014927 | 5 | 246 | 0.0 | 6.4 | 0.00 | 0.00 | 0.00 | 61 | 1015.9 |
| 20260502014424 | 5 | 127 | 3.2 | 6.4 | 0.00 | 0.00 | 0.00 | 62 | 1016.0 |
| 20260502013921 | 5 | 33 | 3.2 | 6.4 | 0.00 | 0.00 | 0.00 | 61 | 1015.9 |
| 20260502013416 | 5 | 325 | 3.2 | 4.8 | 0.00 | 0.00 | 0.00 | 63 | 1015.7 |
| 20260502012913 | 5 | 51 | 0.0 | 6.4 | 0.00 | 0.00 | 0.00 | 62 | 1015.6 |
| 20260502012411 | 6 | 31 | 1.6 | 8.0 | 0.00 | 0.00 | 0.00 | 62 | 1015.8 |
| 20260502011908 | 6 | 4 | 4.8 | 4.8 | 0.00 | 0.00 | 0.00 | 62 | 1015.6 |
| 20260502011404 | 6 | 102 | 6.4 | 11.3 | 0.00 | 0.00 | 0.00 | 61 | 1015.7 |
| 20260502010901 | 6 | 155 | 0.0 | 3.2 | 0.00 | 0.00 | 0.00 | 63 | 1015.4 |
| 20260502010358 | 5 | 85 | 4.8 | 8.0 | 0.00 | 0.00 | 0.00 | 62 | 1015.5 |
| 20260502005854 | 6 | 84 | 1.6 | 4.8 | 0.00 | 0.00 | 0.00 | 63 | 1015.7 |
| 20260502005352 | 6 | 14 | 3.2 | 6.4 | 0.00 | 0.00 | 0.00 | 62 | 1015.6 |
| 20260502004850 | 6 | 317 | 3.2 | 9.7 | 0.00 | 0.00 | 0.00 | 61 | 1015.5 |
| 20260502004345 | 6 | 153 | 4.8 | 8.0 | 0.00 | 0.00 | 0.00 | 62 | 1015.5 |
| 20260502003843 | 6 | 73 | 0.0 | 8.0 | 0.00 | 0.00 | 0.00 | 61 | 1015.4 |
| 20260502003340 | 6 | 359 | 6.4 | 8.0 | 0.00 | 0.00 | 0.00 | 61 | 1015.5 |
| 20260502002836 | 6 | 175 | 0.0 | 4.8 | 0.00 | 0.00 | 0.00 | 63 | 1015.5 |
| 20260502002334 | 6 | 295 | 3.2 | 8.0 | 0.00 | 0.00 | 0.00 | 62 | 1015.3 |
| 20260502001831 | 6 | 309 | 1.6 | 11.3 | 0.00 | 0.00 | 0.00 | 62 | 1015.4 |
| 20260502001329 | 6 | 331 | 0.0 | 9.7 | 0.00 | 0.00 | 0.00 | 62 | 1015.4 |
| 20260502000826 | 6 | 8 | 3.2 | 6.4 | 0.00 | 0.00 | 0.00 | 62 | 1015.1 |
| 20260502000325 | 6 | 320 | 0.0 | 9.7 | 0.00 | 0.00 | 0.00 | 61 | 1015.1 |
| 20260501235820 | 6 | 54 | 3.2 | 6.4 | 0.00 | 0.00 | 0.00 | 61 | 1015.1 |
| 20260501235316 | 6 | 43 | 6.4 | 6.4 | 0.00 | 0.00 | 0.00 | 61 | 1015.1 |
| 20260501234811 | 6 | 0 | 4.8 | 8.0 | 0.00 | 0.00 | 0.00 | 62 | 1015.1 |
| 20260501234309 | 6 | 61 | 0.0 | 6.4 | 0.00 | 0.00 | 0.00 | 61 | 1015.3 |
| 20260501233807 | 6 | 100 | 3.2 | 8.0 | 0.00 | 0.00 | 0.00 | 60 | 1015.1 |
| 20260501233304 | 6 | 2 | 4.8 | 4.8 | 0.00 | 0.00 | 0.00 | 61 | 1015.1 |
| 20260501232759 | 6 | 105 | 1.6 | 8.0 | 0.00 | 0.00 | 0.00 | 61 | 1015.1 |
| 20260501232257 | 6 | 331 | 3.2 | 4.8 | 0.00 | 0.00 | 0.00 | 61 | 1015.0 |
| 20260501231754 | 6 | 33 | 6.4 | 9.7 | 0.00 | 0.00 | 0.00 | 61 | 1015.0 |
| 20260501231253 | 6 | 62 | 4.8 | 6.4 | 0.00 | 0.00 | 0.00 | 63 | 1015.0 |
| 20260501230750 | 6 | 49 | 4.8 | 8.0 | 0.00 | 0.00 | 0.00 | 60 | 1015.1 |
| 20260501230249 | 6 | 351 | 6.4 | 6.4 | 0.00 | 0.00 | 0.00 | 61 | 1015.0 |
| 20260501225746 | 6 | 321 | 4.8 | 9.7 | 0.00 | 0.00 | 0.00 | 60 | 1015.3 |
| 20260501225243 | 6 | 312 | 1.6 | 8.0 | 0.00 | 0.00 | 0.00 | 59 | 1015.2 |
| 20260501224739 | 6 | 70 | 6.4 | 11.3 | 0.00 | 0.00 | 0.00 | 60 | 1015.1 |
| 20260501224237 | 7 | 112 | 4.8 | 16.1 | 0.00 | 0.00 | 0.00 | 61 | 1015.1 |
| 20260501223733 | 7 | 320 | 6.4 | 8.0 | 0.00 | 0.00 | 0.00 | 60 | 1015.0 |
| 20260501223229 | 7 | 15 | 6.4 | 6.4 | 0.00 | 0.00 | 0.00 | 61 | 1015.1 |
| 20260501222725 | 7 | 18 | 3.2 | 6.4 | 0.00 | 0.00 | 0.00 | 60 | 1015.0 |
| 20260501222223 | 7 | 170 | 0.0 | 12.9 | 0.00 | 0.00 | 0.00 | 60 | 1014.7 |
| 20260501221720 | 6 | 9 | 6.4 | 17.7 | 0.00 | 0.00 | 0.00 | 60 | 1014.9 |
| 20260501221217 | 7 | 220 | 11.3 | 11.3 | 0.00 | 0.00 | 0.00 | 59 | 1015.0 |
| 20260501220714 | 7 | 141 | 3.2 | 6.4 | 0.00 | 0.00 | 0.00 | 59 | 1015.0 |
| 20260501220212 | 7 | 153 | 4.8 | 9.7 | 0.00 | 0.00 | 0.00 | 60 | 1014.8 |
| 20260501215709 | 6 | 0 | 4.8 | 16.1 | 0.00 | 0.00 | 0.00 | 58 | 1014.7 |
| 20260501215204 | 7 | 333 | 9.7 | 22.5 | 0.00 | 0.00 | 0.00 | 57 | 1014.6 |
| 20260501214659 | 7 | 41 | 3.2 | 6.4 | 0.00 | 0.00 | 0.00 | 61 | 1014.8 |
| 20260501214155 | 7 | 194 | 0.0 | 12.9 | 0.00 | 0.00 | 0.00 | 60 | 1014.8 |
| 20260501213652 | 7 | 41 | 0.0 | 11.3 | 0.00 | 0.00 | 0.00 | 61 | 1014.7 |
| 20260501213147 | 7 | 30 | 3.2 | 8.0 | 0.00 | 0.00 | 0.00 | 60 | 1014.6 |
| 20260501212644 | 7 | 3 | 6.4 | 16.1 | 0.00 | 0.00 | 0.00 | 60 | 1014.7 |
| 20260501212141 | 7 | 322 | 8.0 | 19.3 | 0.00 | 0.00 | 0.00 | 61 | 1014.5 |
| 20260501211638 | 7 | 108 | 4.8 | 8.0 | 0.00 | 0.00 | 0.00 | 59 | 1014.6 |
| 20260501211135 | 7 | 342 | 6.4 | 9.7 | 0.00 | 0.00 | 0.00 | 61 | 1014.6 |
| 20260501210632 | 7 | 334 | 0.0 | 12.9 | 0.00 | 0.00 | 0.00 | 62 | 1014.7 |
| 20260501210129 | 7 | 12 | 6.4 | 11.3 | 0.00 | 0.00 | 0.00 | 58 | 1014.4 |
| 20260501205625 | 7 | 326 | 6.4 | 16.1 | 0.00 | 0.00 | 0.00 | 58 | 1014.5 |
| 20260501205123 | 7 | 326 | 8.0 | 11.3 | 0.00 | 0.00 | 0.00 | 56 | 1014.3 |
| 20260501204619 | 7 | 351 | 8.0 | 19.3 | 0.00 | 0.00 | 0.00 | 56 | 1014.2 |
| 20260501204115 | 7 | 358 | 4.8 | 17.7 | 0.00 | 0.00 | 0.00 | 56 | 1014.3 |
| 20260501203612 | 7 | 9 | 4.8 | 19.3 | 0.00 | 0.00 | 0.00 | 60 | 1014.3 |
| 20260501203109 | 7 | 30 | 3.2 | 14.5 | 0.00 | 0.00 | 0.00 | 59 | 1014.2 |
| 20260501202607 | 7 | 76 | 3.2 | 11.3 | 0.00 | 0.00 | 0.00 | 59 | 1014.2 |
| 20260501202103 | 8 | 0 | 3.2 | 8.0 | 0.00 | 0.00 | 0.00 | 57 | 1014.3 |
| 20260501201600 | 7 | 83 | 3.2 | 8.0 | 0.00 | 0.00 | 0.00 | 57 | 1014.3 |
| 20260501201056 | 8 | 337 | 3.2 | 6.4 | 0.00 | 0.00 | 0.00 | 58 | 1014.4 |
| 20260501200554 | 7 | 10 | 3.2 | 12.9 | 0.00 | 0.00 | 0.00 | 58 | 1014.3 |
| 20260501200051 | 8 | 0 | 6.4 | 12.9 | 0.00 | 0.00 | 0.00 | 59 | 1014.2 |
| 20260501195548 | 7 | 38 | 3.2 | 9.7 | 0.00 | 0.00 | 0.00 | 57 | 1014.1 |
| 20260501195044 | 7 | 101 | 1.6 | 11.3 | 0.00 | 0.00 | 0.00 | 57 | 1014.3 |
| 20260501194539 | 7 | 35 | 6.4 | 14.5 | 0.00 | 0.00 | 0.00 | 56 | 1014.3 |
| 20260501194035 | 7 | 337 | 6.4 | 8.0 | 0.00 | 0.00 | 0.00 | 56 | 1014.2 |
| 20260501193533 | 8 | 316 | 8.0 | 16.1 | 0.00 | 0.00 | 0.00 | 58 | 1014.1 |
| 20260501193031 | 8 | 3 | 4.8 | 17.7 | 0.00 | 0.00 | 0.00 | 55 | 1014.2 |
| 20260501192528 | 8 | 302 | 1.6 | 17.7 | 0.00 | 0.00 | 0.00 | 59 | 1014.2 |
| 20260501192026 | 8 | 330 | 8.0 | 9.7 | 0.00 | 0.00 | 0.00 | 58 | 1014.1 |
| 20260501191522 | 7 | 352 | 4.8 | 11.3 | 0.00 | 0.00 | 0.00 | 59 | 1014.2 |
| 20260501191020 | 7 | 358 | 3.2 | 12.9 | 0.00 | 0.00 | 0.00 | 57 | 1014.2 |
| 20260501190515 | 7 | 315 | 4.8 | 12.9 | 0.00 | 0.00 | 0.00 | 58 | 1013.9 |
| 20260501190012 | 8 | 334 | 11.3 | 14.5 | 0.00 | 0.00 | 0.00 | 56 | 1014.0 |
| 20260501185507 | 8 | 22 | 6.4 | 16.1 | 0.00 | 0.00 | 0.00 | 56 | 1013.9 |
| 20260501185003 | 8 | 34 | 9.7 | 11.3 | 0.00 | 0.00 | 0.00 | 58 | 1014.1 |
| 20260501184500 | 8 | 318 | 9.7 | 14.5 | 0.00 | 0.00 | 0.00 | 58 | 1014.0 |
| 20260501183954 | 8 | 46 | 4.8 | 11.3 | 0.00 | 0.00 | 0.00 | 58 | 1013.9 |